Regional Weather Roundup
Issued by NWS Northern Indiana

Home | Current Version | Previous Version | Text Only | Print | Product List | Glossary Off
Versions: 1 2 3 4 5 6 7 8 9 10 11 12 13 14 15 16 17 18 19 20 21 22 23 24 25 26 27 28 29 30 31 32 33 34 35 36 37 38 39 40 41 42 43 44 45 46 47 48 49 50

000
ASUS43 KIWX 301810
RWRIWX

KIWX WEATHER ROUNDUP
NATIONAL WEATHER SERVICE NORTHERN INDIANA
100 PM EST FRI JAN 30 2015

NOTE: "FAIR" INDICATES FEW OR NO CLOUDS BELOW 12,000 FEET WITH NO
SIGNIFICANT WEATHER AND/OR OBSTRUCTIONS TO VISIBILITY.

* THESE STATIONS ARE NOT UNDER NWS QUALITY CONTROL. THEY ALSO MAY NOT
  REPORT WEATHER SUCH AS PRECIPITATION OR FOG.

INZ001>027-301900-
NORTHERN INDIANA

CITY           SKY/WX    TMP DP  RH WIND       PRES   REMARKS
GARY*          MOSUNNY   30  14  51 N12       30.53F WCI  21
VALPARAISO     CLOUDY    28  14  55 N12       30.49F WCI  18
6HR MIN TEMP:  24; 6HR MAX TEMP:  28; 6HR PCP: TRACE;

MICHIGAN CITY* CLOUDY    27  10  50 N9        30.51S WCI  17
LAPORTE*       CLOUDY    28  16  61 N13       30.50S WCI  18
6HR MIN TEMP:  26; 6HR MAX TEMP:  29;

KNOX*          CLOUDY    28   0  29 NW10      30.49S WCI  19
SOUTH BEND     CLOUDY    25  15  66 N6        30.48F WCI  18
6HR MIN TEMP:  24; 6HR MAX TEMP:  26; 6HR PCP: TRACE;

ELKHART*       CLOUDY    25  10  54 NW6       30.48F WCI  18
GOSHEN         CLOUDY    24  13  62 N12       30.47S WCI  13
6HR MIN TEMP:  22; 6HR MAX TEMP:  25;

MONTICELLO*    CLOUDY    27  19  72 NW9       30.50S WCI  18
6HR MIN TEMP:  24; 6HR MAX TEMP:  28;

LOGANSPORT*    CLOUDY    28  16  59 NW6       30.50R WCI  22
ROCHESTER*     CLOUDY    28  19  69 N6        30.49S WCI  22
WARSAW*        CLOUDY    25  14  63 NW8       30.47S WCI  16
ANGOLA*        PTSUNNY   21  10  63 N6        30.44S WCI  14
FORT WAYNE     PTSUNNY   25  12  58 NW12      30.46F WCI  14
6HR MIN TEMP:  20; 6HR MAX TEMP:  25; 6HR PCP: TRACE;

HUNTINGTON*    PTSUNNY   26  10  50 NW9       30.46F WCI  17
6HR MIN TEMP:  22; 6HR MAX TEMP:  26;

PERU/GRISSOM   CLOUDY    27  15  59 N8        30.47S WCI  19
6HR MIN TEMP:  25; 6HR MAX TEMP:  27; 6HR PCP: TRACE;

MARION*        CLOUDY    25  15  65 N8        30.47F WCI  16
6HR MIN TEMP:  -2; 6HR MAX TEMP:  46;


$$
INZ028>050-301900-
CENTRAL INDIANA

CITY           SKY/WX    TMP DP  RH WIND       PRES   REMARKS
LAFAYETTE      CLOUDY    28  15  58 N10       30.50F WCI  19
6HR MIN TEMP:  24; 6HR MAX TEMP:  29;

KOKOMO*        CLOUDY    27  16  63 N9        30.47F WCI  17
6HR MIN TEMP:  25; 6HR MAX TEMP:  28;

MUNCIE*        CLOUDY    26  15  63 N14       30.46F WCI  14
6HR MIN TEMP:  24; 6HR MAX TEMP:  26; 6HR PCP: TRACE;

INDIANAPOLIS   PTSUNNY   27  14  58 N10       30.48F WCI  17
6HR MIN TEMP:  24; 6HR MAX TEMP:  27; 6HR PCP: TRACE;


$$
MIZ043>046-050>051-056>058-064>065-071>073-077>080-301900-
SOUTHWEST LOWER MICHIGAN

CITY           SKY/WX    TMP DP  RH WIND       PRES   REMARKS
BATTLE CREEK   CLOUDY    23   9  55 W9        30.45S WCI  13
6HR MIN TEMP:  20; 6HR MAX TEMP:  24;

BENTON HARBOR  CLOUDY    23  15  71 VRB5      30.49S WCI  17
6HR MIN TEMP:  22; 6HR MAX TEMP:  24; 6HR PCP: TRACE;

COLDWATER*     MOSUNNY   22   8  55 NW9       30.44S WCI  12
6HR MIN TEMP:  19; 6HR MAX TEMP:  22;

HILLSDALE*     CLOUDY    20   8  59 NW9       30.41F WCI   9
6HR MIN TEMP:  18; 6HR MAX TEMP:  20;

HOLLAND        CLOUDY    24  10  55 W8        30.48F WCI  15
6HR MIN TEMP:  20; 6HR MAX TEMP:  24; 6HR PCP: TRACE;

GRAND RAPIDS   PTSUNNY   21   9  59 NW9       30.47S WCI  11
6HR MIN TEMP:  19; 6HR MAX TEMP:  23;

KALAMAZOO      CLOUDY    22   9  57 W5        30.46S WCI  16
6HR MIN TEMP:  20; 6HR MAX TEMP:  23; 6HR PCP: TRACE;

STURGIS*       PTSUNNY   21  12  68 CALM      30.45S
THREE RIVERS*  FAIR      24  10  56 N6        30.47S WCI  16

$$
OHZ001>008-015>018-024>025-301900-
NORTHWEST OHIO

CITY           SKY/WX    TMP DP  RH WIND       PRES   REMARKS
WAUSEON*       PTSUNNY   21   7  53 N14       30.44F WCI   8
DEFIANCE       PTSUNNY   24  10  55 NW12      30.45F WCI  13
6HR MIN TEMP:  22; 6HR MAX TEMP:  25; 6HR PCP: TRACE;

FINDLAY        FAIR      23   8  52 NW14      30.42F WCI  11
6HR MIN TEMP:  21; 6HR MAX TEMP:  23;

TOLEDO EXPRESS CLOUDY    21   9  59 N14       30.44F WCI   8
6HR MIN TEMP:  18; 6HR MAX TEMP:  21;

TOLEDO METCALF MOSUNNY   22   7  52 NW15      30.45F WCI   9
6HR MIN TEMP:  19; 6HR MAX TEMP:  22; 6HR PCP: TRACE;

LIMA           SUNNY     23  11  60 N14       30.42F WCI  11
6HR MIN TEMP:  22; 6HR MAX TEMP:  24; 6HR PCP: TRACE;


$$
AND FOR LAKE MICHIGAN COASTAL AND OPEN LAKE BUOY OBSERVATIONS

STATION/POSITION TEMP    WIND        PRES    VSBY  WAVE
                 AIR SEA DIR/SP/G                  HT/PER
                 (F)     (DEG/KT/KT) (MB)    (MI)  (FT/S)
CALUMET HARBOR    26      10/  8/ 11   N/A
MICHIGAN CITY     25     350/ 12/ 15   N/A
SAINT JOSEPH      25     350/  8/ 10 1032.8F
SAINT JOSEPH CG                      1032.7      6   4

$$
&&


USA.gov is the U.S. government's official web portal to all federal, state and local government web resources and services.